Regional Weather Roundup
Issued by NWS Green Bay, WI

Home | Current Version | Previous Version | Text Only | Print | Product List | Glossary On
Versions: 1 2 3 4 5 6 7 8 9 10 11 12 13 14 15 16 17 18 19 20 21 22 23 24 25 26 27 28 29 30 31 32 33 34 35 36 37 38 39 40 41 42 43 44 45 46 47 48 49 50
000
ASUS43 KGRB 290400
RWRGRB

NORTH-CENTRAL AND NORTHEAST WISCONSIN REGIONAL WEATHER ROUNDUP
NATIONAL WEATHER SERVICE GREEN BAY WI
1100 PM CDT SUN AUG 28 2016

WIZ005-009-010>012-018-019-290500-
NORTH CENTRAL WISCONSIN

CITY           SKY/WX    TMP DP  RH WIND       PRES   REMARKS
IRONWOOD       CLEAR     67  61  81 SE6       30.20F
MANITOWISH WTR NOT AVBL
ARBOR VITAE    NOT AVBL
EAGLE RIVER    NOT AVBL
LAND O LAKES   NOT AVBL
RHINELANDER    CLEAR     59  59 100 CALM      30.24S FOG
PHILLIPS       MOCLDY    65  63  96 CALM      30.21S
ANTIGO         NOT AVBL
TOMAHAWK       NOT AVBL
MERRILL        NOT AVBL
$$

WIZ013-073-290500-
NORTHEAST WISCONSIN

CITY           SKY/WX    TMP DP  RH WIND       PRES   REMARKS
IRON MOUNTAIN  CLEAR     63  59  87 CALM      30.22S
MARINETTE      CLEAR    N/A N/A N/A CALM      30.22S
$$

WIZ017-030-035>037-045-290500-
CENTRAL WISCONSIN

CITY           SKY/WX    TMP DP  RH WIND       PRES   REMARKS
MEDFORD        NOT AVBL
WAUSAU         CLEAR     66  64  93 CALM      30.21R
MOSINEE        NOT AVBL
MARSHFIELD     CLEAR     65  62  90 CALM      30.21R
WISC RAPIDS    CLEAR     65  64  97 CALM      30.22S
STEVENS POINT  NOT AVBL
WAUPACA        NOT AVBL
SHAWANO        NOT AVBL
CLINTONVILLE   CLEAR     64  63  94 CALM      30.21S FOG
WAUTOMA        CLOUDY    65  64  97 CALM      30.22R
$$

WIZ038-039-048-051-290500-
FOX VALLEY

CITY           SKY/WX    TMP DP  RH WIND       PRES   REMARKS
NWS GREEN BAY  CLEAR     64  64 100 CALM      30.22S
APPLETON       PTCLDY    68  68 100 CALM      30.20
OSHKOSH        CLOUDY    66  64  93 CALM      30.21S
FOND DU LAC    CLOUDY    66  63  90 S6        30.22S
$$

WIZ022-050-052-290500-
EAST CENTRAL WISCONSIN

CITY           SKY/WX    TMP DP  RH WIND       PRES   REMARKS
EPHRAIM        NOT AVBL
WASHINGTON ISL NOT AVBL
STURGEON BAY   CLEAR     64  62  93 S3        30.23S
MANITOWOC      FOG       63  61  94 CALM      30.23R VSB 1/4
SHEBOYGAN      MOCLDY    61  60  97 CALM      30.23R FOG
$$

LMZ563-521-522-541>543-290500-
LAKESHORE

STATION/POSITION TIME  TEMP    WIND        PRES    VSBY  WAVE
                       AIR SEA DIR/SP/G                  HT/PER
                 (UTC) (F)     (DEG/KT/KT) (MB)    (MI)  (FT/S)
SHEBOYGAN LKSHOR 0300   67      10/  1/  1 1022.8F
KEWAUNEE LKSHORE 0300   63     290/  2/  2 1022.9S
NORTHPORT PIER   0300   67     170/  3/  5 1023.4R
N MID LAKE BUOY  0250   70 71  110/  2/  2 1023.2R         0
CHAMBERS ISLAND  0300   67     180/  1/  5 1023.0S
MENOMINEE LKSHOR 0300   69     190/  6/  9 1022.2F
$$




USA.gov is the U.S. government's official web portal to all federal, state and local government web resources and services.